Location: Canazei
(46.4667°N, 11.7667°E)
Time: 18:31:12
(UTC+00:00)

CZ-4C R/B - Pass Details

Date: 21 April 2021
Orbit: 463 x 634 km, 98.0° (Epoch: 11 May)

Event Time Altitude Azimuth Distance (km) Brightness Sun altitude
Exits shadow 02:22:56 36° 225° (SW) 996 4.1 -17.6°
Maximum altitude 02:23:59 43° 262° (W) 891 3.9 -17.5°
Drops below altitude 10° 02:28:13 10° 334° (NNW) 2,029 6.4 -16.9°
Sets 02:30:33 0° 341° (NNW) 2,943 7.3 -16.6°
